Terminal Aerodrome Forecast
Issued by NWS

Home | Current Version | Previous Version | Text Only | Print | Product List | Glossary On
Versions: 1 2 3 4 5 6 7 8 9 10 11 12 13 14 15 16 17 18 19 20 21 22 23 24 25 26 27
000
FTUS43 KDLH 262300 RRA
TAFHYR
TAF
KHYR 262341Z 2700/2724 22008KT P6SM SCT100
     FM270200 23005KT P6SM VCTS BKN050CB
     FM270700 27006KT P6SM FEW050 SCT100
     FM271200 29008KT P6SM VCSH BKN040 OVC090
      TEMPO 2714/2718 34012G18KT 3SM -SHRA BR OVC025
     FM271800 36010G17KT 6SM -SHRA BKN040=

USA.gov is the U.S. government's official web portal to all federal, state and local government web resources and services.